Location: Balmoral
(33.0667°S, 151.5833°E)
Time: 00:26:29
(UTC+00:00)

Cosmos 968 Rocket - Pass Details

Date: 18 September 2020
Orbit: 740 x 771 km, 74.0° (Epoch: 21 October)

Event Time Altitude Azimuth Distance (km) Brightness Sun altitude
Exits shadow 17:55:42 66° 287° (WNW) 831 3.3 -24.0°
Maximum altitude 17:56:08 70° 253° (WSW) 812 3.3 -23.9°
Drops below altitude 10° 18:01:21 10° 168° (SSE) 2,302 6.3 -22.9°
Sets 18:03:44 0° 166° (SSE) 3,229 7.1 -22.4°
